Wind_Speed
18 19 19 18 18 16 16 17 19 19 20 22 20 18 15 12 13 12 9 10 10 8 10 8 9 10 5 6 7 5 4 1 3 6 5 11 6 4 7 12 7 4 14 15 21
16 19 20 17 21 18 15 15 16 18 18 17 17 17 17 14 14 15 13 13 12 11 11 9 9 8 4 6 5 5 3 2 2 6 6 10 13 13 7 12 8 16 17 20 22
19 17 19 20 19 21 17 16 15 16 17 18 16 14 13 13 12 12 15 16 15 11 10 8 7 5 3 4 5 2 2 4 5 3 15 13 11 6 19 2 17 25 24 22 22
20 21 18 18 20 21 21 17 16 14 14 14 16 16 13 10 7 6 12 15 16 14 13 8 4 2 1 2 4 2 5 4 4 7 6 8 9 7 10 6 16 23 24 24 22
22 20 19 18 21 18 20 19 17 15 13 12 14 16 15 11 8 4 5 12 15 16 15 11 8 3 2 2 3 2 2 4 4 6 8 3 5 2 9 10 17 24 24 23 20
18 19 19 16 20 21 18 21 18 15 14 12 12 15 18 7 9 13 8 2 9 16 15 13 8 7 2 1 1 1 2 4 3 2 4 4 3 2 8 12 22 24 23 21 20
19 20 20 15 18 23 22 17 19 17 16 12 12 15 16 19 8 13 15 12 6 12 15 15 10 10 5 2 1 1 1 3 3 4 1 3 5 6 9 14 21 23 22 21 20
19 18 18 16 16 22 21 19 17 21 17 13 12 13 8 16 13 13 14 12 10 10 12 16 12 6 5 6 4 3 5 2 3 7 4 6 7 11 13 10 16 21 22 23 22
19 19 19 20 16 18 21 20 16 12 17 14 14 10 5 10 22 14 16 16 10 12 10 12 11 4 5 6 3 5 3 3 6 9 3 4 6 12 8 11 17 19 21 22 21
17 15 19 19 15 18 19 19 17 15 16 16 10 6 10 13 20 23 12 18 10 14 11 9 5 3 2 3 8 7 6 4 6 1 4 6 8 7 11 5 8 10 21 25 23
17 15 19 16 21 19 20 20 13 12 25 9 13 5 3 10 16 21 18 18 13 12 5 6 4 9 15 14 3 5 4 5 3 5 3 8 7 11 20 13 16 20 20 17 20
17 16 19 17 19 19 23 22 14 4 3 9 11 20 4 16 9 16 21 12 10 7 7 3 8 6 5 3 4 4 4 3 4 3 5 3 7 8 11 9 19 25 27 27 25
16 18 17 19 15 24 27 22 20 11 1 16 12 21 13 15 6 19 26 12 5 6 9 6 4 13 8 5 7 4 5 4 4 4 4 6 6 7 9 16 30 36 36 35 36
15 18 17 18 18 21 19 25 22 16 3 7 14 11 15 11 3 17 30 10 5 11 6 4 3 11 6 8 7 6 6 5 3 2 4 1 6 6 6 8 7 27 35 44 37
17 19 20 19 16 16 21 22 14 19 5 13 10 9 17 11 14 15 29 6 6 6 6 6 7 8 10 6 7 5 6 7 4 3 0 3 4 6 4 6 11 17 28 31 38
19 20 21 19 17 7 12 15 6 1 6 6 10 12 7 9 5 15 16 5 4 3 3 5 1 7 9 6 10 7 6 5 4 2 6 8 8 5 6 11 5 13 25 25 25
20 22 21 21 13 12 7 10 3 3 5 7 7 14 17 9 6 5 11 9 6 6 9 4 3 2 5 5 3 5 8 1 1 4 7 2 8 12 7 9 8 9 13 17 17
23 23 21 21 18 12 7 3 3 2 4 6 8 16 14 11 7 6 12 13 8 2 5 7 5 8 6 7 8 11 10 5 8 5 4 2 7 6 10 18 24 31 23 14 19
27 24 21 18 13 14 10 3 3 3 1 7 14 11 7 10 7 9 14 16 15 13 8 8 6 2 5 4 10 5 9 5 4 2 2 4 6 8 9 9 7 6 13 14 20
34 27 21 17 14 15 3 4 2 2 2 3 4 4 7 15 9 14 14 14 6 17 4 7 2 3 6 4 1 7 8 3 2 2 4 5 5 7 2 10 5 5 17 20 23
35 11 16 14 12 6 2 1 2 1 2 3 4 3 2 4 7 9 12 7 19 14 15 4 3 1 5 9 14 5 7 5 5 5 5 2 6 7 13 6 8 8 15 20 25
15 5 19 20 5 3 2 2 1 3 3 2 3 3 3 4 5 10 14 9 22 16 17 8 4 5 6 1 3 16 10 15 6 5 4 2 14 3 6 9 3 5 10 20 27
9 10 16 13 3 1 1 1 1 3 2 1 1 1 2 2 5 8 6 8 8 17 9 10 6 2 2 4 3 6 11 9 6 3 15 6 12 7 11 9 2 2 4 8 21
8 3 5 4 2 6 3 3 1 3 1 3 2 2 2 2 6 4 9 9 11 17 23 16 5 16 17 10 7 8 14 17 14 6 11 17 18 6 6 6 1 5 6 8 11
6 2 4 3 2 2 2 4 2 1 2 4 1 5 3 0 3 5 3 3 10 11 14 7 8 10 21 6 9 15 16 16 18 26 12 24 22 21 17 6 16 24 23 20 21
5 7 5 3 10 4 4 3 5 3 6 4 4 6 6 7 6 4 4 3 5 5 8 4 7 8 11 9 7 6 16 23 27 26 19 23 22 12 10 12 17 18 13 15 19
13 13 5 1 2 4 4 6 4 2 5 10 6 4 9 8 17 18 16 12 6 5 3 2 5 7 14 8 6 8 21 20 20 23 25 20 27 24 19 12 21 25 30 36 35
Wind_Direction
246 245 236 238 231 232 229 226 223 223 230 231 239 243 250 245 256 261 255 248 257 269 284 291 307 330 339 4 355 337 72 143 164 174 176 147 119 121 121 129 114 153 152 155 159
250 245 239 239 225 228 226 224 222 220 220 224 227 232 242 249 246 252 257 257 259 265 275 298 312 333 358 356 8 54 83 191 259 171 169 161 142 138 126 118 94 122 135 149 159
242 255 240 237 225 220 222 221 218 218 222 227 227 222 230 242 252 250 250 258 258 257 268 273 297 325 329 340 12 31 84 308 10 110 148 146 146 137 139 195 167 158 156 161 164
243 241 249 246 232 216 216 217 215 213 216 221 224 221 218 218 214 196 226 242 250 245 247 250 259 248 321 353 20 93 38 8 356 46 121 139 147 110 163 203 186 174 166 165 171
234 233 247 241 229 211 210 213 212 210 208 215 215 212 206 212 216 172 177 215 221 223 228 219 199 198 197 326 354 122 62 53 63 61 55 112 71 122 166 191 186 173 172 174 179
233 232 233 241 233 232 207 207 207 208 207 210 212 207 204 205 238 214 208 183 214 214 209 201 197 190 239 160 160 153 118 161 137 93 48 65 353 57 170 158 166 176 182 184 185
234 229 224 233 229 230 219 207 204 205 203 206 211 208 207 221 219 213 216 232 232 206 202 198 189 187 181 118 146 106 115 11 146 163 135 105 324 250 142 175 177 189 192 195 197
234 228 225 222 224 221 218 208 207 204 201 202 204 204 221 230 218 210 197 200 208 205 198 196 199 184 164 131 42 88 52 124 267 161 207 146 251 254 235 215 213 210 208 207 206
227 227 225 212 219 216 207 208 203 210 187 192 193 185 231 218 214 202 203 200 183 182 175 181 188 171 151 108 55 8 183 196 298 209 137 168 238 259 246 229 238 245 235 228 222
224 224 216 211 215 213 203 203 192 197 185 177 189 193 227 212 209 205 199 192 169 168 149 159 167 118 56 129 193 196 195 214 202 211 202 212 228 254 207 220 253 278 252 237 230
221 220 214 205 214 207 190 176 168 177 174 189 196 207 265 190 203 201 193 177 181 168 150 175 149 191 195 202 112 138 161 191 228 264 195 225 237 240 253 270 271 266 261 248 231
215 210 210 213 214 210 196 182 188 154 201 196 212 205 198 183 165 203 189 168 173 184 144 121 227 199 153 154 150 128 156 207 284 283 189 261 256 251 257 247 252 260 257 253 246
212 208 208 212 211 215 191 186 182 173 144 204 196 202 171 185 186 190 184 189 157 163 190 179 222 170 173 167 184 208 182 175 210 350 342 343 283 245 262 249 253 251 251 252 250
207 201 201 197 198 208 223 176 181 180 223 196 183 202 183 182 238 188 185 169 169 186 159 250 251 180 158 195 165 212 184 172 183 86 237 75 285 275 259 259 237 249 245 244 244
200 194 197 189 194 186 211 213 186 169 212 161 156 187 179 184 144 180 187 177 170 167 156 216 187 179 198 187 156 205 157 172 169 196 254 202 293 265 260 279 258 259 258 252 248
191 190 190 193 205 154 190 194 226 173 229 157 141 160 156 191 185 146 178 186 142 140 65 206 262 168 186 172 172 154 85 56 59 102 258 203 196 222 204 222 264 273 264 254 247
187 183 187 182 150 168 149 139 114 153 321 161 176 165 166 176 134 156 171 185 169 145 199 165 235 246 176 129 84 136 120 85 266 222 238 252 210 259 270 264 225 252 287 242 227
178 174 180 189 202 204 173 63 149 226 288 287 160 162 182 150 184 157 163 191 241 109 136 173 204 180 194 181 176 175 167 163 201 210 245 108 227 253 238 253 255 258 273 240 214
167 165 173 184 196 188 150 196 217 166 337 304 153 163 164 176 133 164 186 198 197 188 164 176 238 162 175 158 155 187 201 159 113 31 30 230 288 294 257 266 285 233 210 201 207
156 151 154 156 177 171 115 160 171 9 16 343 2 174 161 182 165 188 171 200 216 203 195 198 175 232 180 106 331 173 150 167 66 205 251 259 260 234 275 240 218 191 203 204 205
140 111 143 158 177 98 152 138 118 101 255 12 11 20 77 164 186 186 194 219 197 192 197 193 131 222 132 205 187 159 190 204 178 170 197 245 252 221 232 207 202 225 228 220 213
109 97 149 151 82 41 131 186 138 139 248 163 150 131 23 37 241 199 217 204 201 171 199 192 142 175 191 86 312 218 215 197 195 217 237 254 256 294 232 171 146 259 268 234 226
83 86 149 162 117 86 107 341 252 181 212 124 93 304 134 63 357 327 322 240 199 189 194 178 207 122 359 308 340 211 217 212 208 96 235 217 261 232 187 234 115 348 290 269 234
102 100 90 124 91 134 144 294 332 235 104 122 95 145 44 172 164 255 318 315 271 203 203 188 207 217 222 217 145 207 210 215 208 209 225 226 248 260 216 186 276 286 308 318 269
72 96 141 158 232 113 113 151 136 225 182 181 155 202 135 273 216 224 175 290 303 20 226 186 213 221 238 203 196 204 204 208 208 224 204 242 240 242 246 254 260 275 286 277 266
105 132 115 79 142 113 342 272 189 222 160 232 204 150 199 214 216 196 162 179 260 35 347 269 239 216 247 211 195 201 207 207 214 224 233 250 261 245 252 236 247 245 231 240 257
103 118 120 108 99 102 218 213 229 78 277 239 193 208 219 235 242 259 253 224 215 172 159 288 282 208 238 187 185 231 218 206 217 221 218 232 244 259 258 231 235 246 255 260 264
Height
1500 1502 1503 1505 1508 1510 1512 1514 1516 1518 1520 1524 1527 1528 1530 1531 1533 1534 1537 1538 1539 1539 1539 1538 1538 1536 1535 1534 1534 1533 1542 1549 1542 1544 1540 1540 1541 1544 1546 1547 1549 1550 1551 1553 1558
1496 1498 1500 1502 1505 1508 1510 1512 1514 1516 1519 1521 1523 1525 1527 1530 1530 1531 1535 1536 1537 1538 1538 1538 1539 1536 1536 1536 1535 1535 1545 1540 1536 1534 1536 1538 1540 1542 1547 1548 1551 1551 1553 1554 1557
1492 1495 1496 1498 1501 1505 1508 1510 1512 1514 1516 1518 1519 1523 1526 1528 1528 1527 1530 1533 1535 1536 1537 1538 1539 1538 1538 1537 1537 1538 1543 1537 1536 1534 1534 1537 1539 1541 1544 1548 1546 1548 1551 1554 1556
1487 1491 1493 1495 1498 1502 1505 1507 1510 1512 1514 1516 1518 1521 1524 1527 1528 1523 1526 1529 1531 1533 1536 1538 1539 1538 1538 1538 1537 1540 1539 1538 1537 1537 1537 1538 1540 1541 1542 1543 1544 1547 1548 1551 1554
1484 1487 1490 1492 1494 1497 1501 1504 1508 1511 1512 1515 1517 1519 1523 1524 1521 1523 1524 1526 1528 1531 1534 1537 1537 1538 1538 1538 1537 1538 1540 1540 1539 1539 1539 1540 1541 1542 1541 1542 1544 1547 1549 1550 1552
1480 1482 1486 1489 1492 1494 1498 1501 1505 1508 1511 1514 1515 1517 1520 1522 1521 1523 1525 1526 1527 1529 1531 1534 1536 1537 1538 1538 1539 1539 1539 1539 1541 1540 1541 1542 1543 1541 1543 1543 1544 1546 1548 1550 1551
1476 1479 1483 1486 1488 1492 1495 1498 1502 1506 1510 1512 1513 1515 1515 1517 1518 1520 1522 1526 1528 1527 1529 1532 1535 1536 1537 1538 1539 1539 1541 1539 1541 1541 1541 1542 1545 1542 1544 1545 1546 1547 1548 1549 1549
1473 1476 1479 1483 1484 1489 1492 1496 1498 1503 1508 1510 1512 1514 1512 1512 1515 1518 1521 1524 1527 1527 1528 1531 1534 1536 1536 1538 1540 1542 1545 1550 1540 1540 1541 1543 1552 1539 1542 1545 1547 1548 1548 1549 1549
1469 1473 1476 1479 1484 1486 1489 1492 1497 1501 1504 1508 1512 1512 1511 1509 1512 1517 1519 1523 1526 1527 1528 1530 1533 1536 1537 1540 1548 1550 1555 1552 1545 1538 1539 1543 1547 1536 1538 1539 1541 1543 1545 1545 1546
1466 1469 1473 1476 1480 1484 1487 1491 1495 1499 1503 1507 1511 1515 1509 1507 1509 1515 1519 1522 1525 1527 1528 1531 1534 1537 1539 1542 1552 1550 1552 1549 1548 1538 1540 1542 1542 1535 1535 1536 1537 1538 1539 1541 1541
1463 1467 1470 1473 1478 1482 1486 1491 1496 1498 1496 1500 1501 1502 1500 1504 1509 1513 1517 1520 1523 1526 1528 1529 1536 1535 1532 1529 1534 1538 1543 1545 1544 1538 1539 1542 1540 1535 1531 1533 1534 1533 1534 1536 1537
1461 1464 1467 1471 1475 1480 1483 1485 1488 1490 1493 1497 1499 1502 1501 1503 1507 1510 1515 1518 1521 1523 1525 1532 1531 1530 1531 1534 1536 1539 1542 1545 1542 1538 1540 1538 1537 1533 1530 1529 1528 1527 1528 1530 1532
1458 1462 1465 1469 1473 1476 1475 1483 1486 1489 1494 1494 1497 1499 1501 1503 1503 1506 1511 1514 1517 1523 1523 1527 1525 1525 1529 1532 1537 1539 1543 1543 1543 1542 1540 1541 1538 1531 1522 1521 1520 1519 1518 1520 1523
1456 1459 1463 1467 1475 1474 1476 1480 1484 1490 1493 1494 1491 1494 1499 1502 1504 1505 1511 1515 1516 1520 1525 1526 1521 1523 1527 1529 1533 1540 1536 1539 1542 1546 1555 1543 1556 1532 1522 1518 1515 1510 1508 1509 1512
1453 1457 1461 1468 1468 1472 1476 1477 1482 1490 1490 1480 1486 1489 1494 1501 1500 1504 1510 1513 1514 1515 1520 1520 1519 1523 1524 1523 1528 1534 1533 1538 1541 1546 1548 1546 1556 1530 1521 1517 1510 1503 1501 1501 1502
1450 1456 1461 1465 1470 1474 1474 1478 1484 1488 1470 1473 1477 1483 1491 1495 1498 1502 1508 1512 1512 1513 1515 1517 1516 1518 1519 1522 1524 1528 1535 1540 1545 1548 1550 1542 1546 1532 1516 1506 1501 1497 1495 1495 1497
1448 1454 1461 1466 1469 1474 1476 1478 1483 1487 1481 1477 1475 1477 1486 1492 1496 1500 1504 1509 1510 1517 1515 1517 1517 1514 1515 1521 1524 1527 1538 1556 1559 1555 1549 1533 1538 1503 1506 1500 1497 1494 1491 1492 1494
1447 1454 1461 1467 1471 1474 1477 1485 1483 1485 1479 1473 1471 1477 1481 1487 1492 1497 1503 1505 1505 1505 1514 1520 1522 1515 1510 1512 1517 1520 1527 1539 1555 1550 1545 1535 1529 1508 1495 1492 1492 1490 1491 1491 1493
1447 1454 1462 1468 1472 1475 1481 1486 1485 1482 1486 1478 1469 1473 1480 1483 1486 1493 1497 1496 1496 1498 1505 1516 1514 1505 1506 1507 1511 1523 1523 1526 1538 1561 1555 1529 1516 1501 1492 1491 1489 1487 1488 1489 1490
1444 1455 1463 1469 1473 1478 1483 1484 1484 1481 1482 1483 1473 1472 1474 1480 1483 1487 1493 1489 1492 1491 1495 1501 1510 1505 1505 1506 1510 1513 1516 1530 1546 1560 1558 1522 1519 1502 1491 1491 1488 1488 1487 1488 1490
1448 1458 1467 1471 1475 1480 1485 1486 1485 1484 1486 1485 1483 1477 1480 1479 1481 1482 1484 1484 1483 1487 1493 1496 1499 1510 1506 1505 1504 1511 1514 1516 1517 1533 1539 1537 1509 1490 1484 1485 1488 1488 1489 1489 1489
1449 1460 1469 1472 1479 1483 1491 1488 1484 1484 1489 1488 1487 1487 1488 1488 1481 1481 1480 1478 1477 1483 1489 1492 1498 1508 1502 1500 1500 1498 1500 1504 1510 1524 1523 1518 1486 1480 1480 1482 1483 1485 1485 1486 1488
1455 1464 1471 1475 1487 1486 1488 1488 1486 1486 1486 1487 1485 1486 1488 1490 1491 1485 1483 1478 1478 1481 1483 1485 1494 1507 1506 1506 1503 1500 1499 1500 1503 1510 1504 1514 1474 1474 1476 1479 1482 1483 1485 1485 1486
1458 1470 1476 1479 1480 1482 1489 1489 1489 1485 1485 1484 1486 1489 1490 1488 1492 1491 1489 1485 1478 1476 1478 1479 1483 1478 1476 1473 1491 1499 1495 1495 1497 1506 1493 1493 1478 1478 1478 1478 1481 1482 1483 1484 1485
1459 1471 1473 1479 1481 1481 1483 1487 1489 1487 1482 1483 1488 1488 1485 1493 1492 1488 1490 1489 1480 1478 1476 1478 1484 1478 1469 1476 1479 1479 1485 1492 1496 1482 1492 1469 1477 1472 1473 1476 1477 1478 1480 1480 1481
1460 1467 1473 1475 1478 1481 1485 1486 1483 1487 1485 1487 1487 1486 1487 1491 1487 1486 1485 1487 1486 1478 1482 1475 1472 1477 1473 1476 1479 1480 1480 1480 1476 1477 1483 1471 1469 1464 1467 1470 1472 1472 1474 1474 1474
1462 1465 1468 1478 1480 1483 1482 1479 1477 1475 1473 1474 1477 1482 1483 1485 1487 1483 1484 1481 1480 1478 1481 1486 1473 1472 1463 1471 1481 1480 1465 1466 1470 1468 1467 1472 1453 1454 1459 1464 1465 1468 1467 1465 1466